Flag for U.S.A. Weather past 2 weeks in Tempe, Arizona, U.S.A.

Now
84 °F

Scattered clouds.


Feels Like: 82 °F
Forecast: 69 / 87 °F
Wind: 13 mph from West

Location: Phoenix Sky Harbor International Airport

Current Time: May 5, 2015 at 6:36:38 PM

Latest Report: May 5, 2015 at 5:51 PM


Visibility: 10 mi

Pressure: 29.72 "Hg

Humidity: 26%

Dew point: 45 °F

Location of TempeLocation

Historic Weather in Tempe — Graph

°F

Tempe temperature yesterday

Maximum temperature yesterday: 84 °F (at 1:51 PM)
Minimum temperature yesterday: 65 °F (at 5:00 AM)
Average temperature yesterday: 74 °F

Past Weeks' High & Low Weather Summary

 TemperatureHumidityPressure
High100 °F (May 1, 2:51 PM)87% (Apr 26, 12:51 AM)29.96 "Hg (Apr 26, 12:51 AM)
Low55 °F (Apr 26, 5:51 AM)5% (Apr 21, 1:51 PM)29.62 "Hg (May 2, 6:51 PM)
Average77 °F29%29.77 "Hg
* Reported Apr 20 4:51 PM — May 5 4:51 PM, Tempe, Weather by CustomWeather, © 2015

Note: Actual official high and low records may vary slightly from our data, if they occured in-between our weather recording intervals... More about our weather records

Advertising

Tempe weather history for previous 24 hours

 ConditionsComfort  
Time TempWeatherWind HumidityBarometerVisibility
4:51 PM
Tue, May 5
85 °FScattered clouds.5 mph26%29.73 "Hg10 mi
3:51 PM83 °FScattered clouds.7 mph28%29.75 "Hg10 mi
2:51 PM83 °FScattered clouds.10 mph30%29.77 "Hg10 mi
1:51 PM81 °FScattered clouds.9 mph32%29.80 "Hg10 mi
12:51 PM81 °FScattered clouds.10 mph33%29.82 "Hg10 mi
11:51 AM77 °FScattered clouds.12 mph39%29.84 "Hg10 mi
10:51 AM76 °FScattered clouds.5 mph43%29.85 "Hg10 mi
9:51 AM73 °FScattered clouds.3 mph48%29.86 "Hg10 mi
8:51 AM72 °FScattered clouds.5 mph53%29.85 "Hg10 mi
7:51 AM68 °FBroken clouds.5 mph59%29.85 "Hg10 mi
6:51 AM68 °FPartly sunny.7 mph61%29.84 "Hg10 mi
5:51 AM68 °FMostly cloudy.6 mph59%29.82 "Hg10 mi
4:51 AM68 °FMostly cloudy.7 mph61%29.81 "Hg10 mi
3:51 AM68 °FMostly cloudy.6 mph57%29.81 "Hg10 mi
2:51 AM68 °FMostly cloudy.6 mph57%29.81 "Hg10 mi
1:51 AM70 °FMostly cloudy.6 mph55%29.82 "Hg10 mi
12:51 AM68 °FPartly cloudy.6 mph61%29.83 "Hg10 mi
11:51 PM
Mon, May 4
68 °FOvercast.6 mph65%29.83 "Hg10 mi
10:51 PM71 °FOvercast.15 mph44%29.81 "Hg10 mi
9:51 PM71 °FPartly cloudy.10 mph45%29.81 "Hg10 mi
8:51 PM69 °FPartly cloudy.14 mph53%29.81 "Hg10 mi
7:51 PM71 °FPartly cloudy.16 mph47%29.78 "Hg10 mi
6:51 PM76 °FBroken clouds.21 mph37%29.75 "Hg10 mi
Weather by CustomWeather, © 2015

See weather overviewHow to use our weather pages